| time (UTC) | temp F | wind direction | speed knots | gust knots | rain 1hr in | rain 24hr in | rain mn in | humidity % | barometer mb |
| 20260903200504 | 98 | 207 | 2.6 | 8.7 | 0.00 | 0.00 | 0.00 | 46 | 1014.8 |
| 20260903200002 | 98 | 178 | 4.3 | 8.7 | 0.00 | 0.00 | 0.00 | 45 | 1014.9 |
| 20260903195559 | 99 | 184 | 3.5 | 7.8 | 0.00 | 0.00 | 0.00 | 43 | 1014.8 |
| 20260903195058 | 98 | 144 | 1.7 | 10.4 | 0.00 | 0.00 | 0.00 | 44 | 1014.9 |
| 20260903194558 | 98 | 206 | 4.3 | 10.4 | 0.00 | 0.00 | 0.00 | 46 | 1015.0 |
| 20260903194057 | 96 | 178 | 1.7 | 7.0 | 0.00 | 0.00 | 0.00 | 45 | 1015.1 |
| 20260903193557 | 98 | 174 | 2.6 | 7.0 | 0.00 | 0.00 | 0.00 | 44 | 1015.2 |
| 20260903193058 | 98 | 178 | 4.3 | 7.0 | 0.00 | 0.00 | 0.00 | 45 | 1015.3 |
| 20260903192557 | 98 | 158 | 3.5 | 10.4 | 0.00 | 0.00 | 0.00 | 43 | 1015.4 |
| 20260903192055 | 98 | 213 | 3.5 | 10.4 | 0.00 | 0.00 | 0.00 | 46 | 1015.3 |
| 20260903191557 | 98 | 162 | 3.5 | 13.0 | 0.00 | 0.00 | 0.00 | 46 | 1015.4 |
| 20260903191055 | 97 | 137 | 3.5 | 7.0 | 0.00 | 0.00 | 0.00 | 47 | 1015.3 |
| 20260903190655 | 96 | 23 | 0.9 | 7.0 | 0.00 | 0.00 | 0.00 | 49 | 1015.5 |
| 20260903185555 | 97 | 180 | 1.7 | 7.8 | 0.00 | 0.00 | 0.00 | 46 | 1015.8 |
| 20260903185054 | 98 | 244 | 2.6 | 10.4 | 0.00 | 0.00 | 0.00 | 44 | 1015.8 |
| 20260903184554 | 99 | 180 | 3.5 | 10.4 | 0.00 | 0.00 | 0.00 | 45 | 1015.7 |
| 20260903184053 | 99 | 192 | 3.5 | 9.6 | 0.00 | 0.00 | 0.00 | 45 | 1015.8 |
| 20260903183551 | 98 | 55 | 2.6 | 8.7 | 0.00 | 0.00 | 0.00 | 47 | 1015.8 |
| 20260903183054 | 97 | 179 | 3.5 | 9.6 | 0.00 | 0.00 | 0.00 | 46 | 1015.8 |
| 20260903182552 | 95 | 315 | 1.7 | 6.1 | 0.00 | 0.00 | 0.00 | 50 | 1016.0 |
| 20260903182050 | 95 | 315 | 2.6 | 7.0 | 0.00 | 0.00 | 0.00 | 49 | 1016.0 |
| 20260903181552 | 96 | 213 | 1.7 | 7.0 | 0.00 | 0.00 | 0.00 | 48 | 1016.0 |
| 20260903181051 | 95 | 170 | 0.9 | 7.0 | 0.00 | 0.00 | 0.00 | 55 | 1016.0 |
| 20260903180652 | 93 | 340 | 1.7 | 3.5 | 0.00 | 0.00 | 0.00 | 51 | 1016.0 |
| 20260903180053 | 95 | 148 | 0.9 | 4.3 | 0.00 | 0.00 | 0.00 | 50 | 1016.1 |
| 20260903175549 | 96 | 109 | 0.9 | 8.7 | 0.00 | 0.00 | 0.00 | 49 | 1016.2 |
| 20260903175049 | 96 | 142 | 4.3 | 8.7 | 0.00 | 0.00 | 0.00 | 48 | 1016.2 |
| 20260903174548 | 97 | 279 | 3.5 | 7.8 | 0.00 | 0.00 | 0.00 | 47 | 1016.3 |
| 20260903174050 | 96 | 300 | 2.6 | 8.7 | 0.00 | 0.00 | 0.00 | 50 | 1016.2 |
| 20260903173546 | 94 | 168 | 2.6 | 8.7 | 0.00 | 0.00 | 0.00 | 50 | 1016.5 |
| 20260903173050 | 95 | 306 | 2.6 | 7.8 | 0.00 | 0.00 | 0.00 | 50 | 1016.5 |
| 20260903172545 | 95 | 200 | 1.7 | 7.8 | 0.00 | 0.00 | 0.00 | 50 | 1016.5 |
| 20260903172045 | 95 | 137 | 1.7 | 9.6 | 0.00 | 0.00 | 0.00 | 51 | 1016.6 |
| 20260903171544 | 95 | 209 | 3.5 | 9.6 | 0.00 | 0.00 | 0.00 | 50 | 1016.6 |
| 20260903171044 | 95 | 31 | 1.7 | 8.7 | 0.00 | 0.00 | 0.00 | 48 | 1016.8 |
| 20260903170643 | 97 | 203 | 4.3 | 8.7 | 0.00 | 0.00 | 0.00 | 47 | 1016.8 |
| 20260903170059 | 97 | 145 | 1.7 | 8.7 | 0.00 | 0.00 | 0.00 | 49 | 1016.7 |
| 20260903165551 | 96 | 332 | 2.6 | 10.4 | 0.00 | 0.00 | 0.00 | 49 | 1016.9 |
| 20260903165049 | 96 | 246 | 0.9 | 10.4 | 0.00 | 0.00 | 0.00 | 52 | 1016.9 |
| 20260903164551 | 96 | 223 | 1.7 | 8.7 | 0.00 | 0.00 | 0.00 | 51 | 1016.9 |
| 20260903164048 | 96 | 244 | 2.6 | 7.8 | 0.00 | 0.00 | 0.00 | 51 | 1016.9 |
| 20260903163548 | 95 | 195 | 2.6 | 7.0 | 0.00 | 0.00 | 0.00 | 52 | 1017.0 |
| 20260903163100 | 95 | 207 | 2.6 | 7.8 | 0.00 | 0.00 | 0.00 | 53 | 1017.0 |
| 20260903162545 | 94 | 106 | 2.6 | 7.8 | 0.00 | 0.00 | 0.00 | 55 | 1017.1 |
| 20260903162044 | 94 | 63 | 3.5 | 8.7 | 0.00 | 0.00 | 0.00 | 54 | 1017.1 |
| 20260903161544 | 94 | 205 | 1.7 | 8.7 | 0.00 | 0.00 | 0.00 | 55 | 1017.2 |
| 20260903161041 | 94 | 222 | 3.5 | 8.7 | 0.00 | 0.00 | 0.00 | 55 | 1017.2 |
| 20260903160510 | 94 | 171 | 1.7 | 8.7 | 0.00 | 0.00 | 0.00 | 55 | 1017.2 |
| 20260903160009 | 93 | 189 | 1.7 | 7.8 | 0.00 | 0.00 | 0.00 | 56 | 1017.2 |
| 20260903155506 | 93 | 214 | 2.6 | 12.2 | 0.00 | 0.00 | 0.00 | 56 | 1017.3 |
| 20260903155005 | 93 | 207 | 3.5 | 12.2 | 0.00 | 0.00 | 0.00 | 56 | 1017.3 |
| 20260903154504 | 93 | 311 | 2.6 | 6.1 | 0.00 | 0.00 | 0.00 | 56 | 1017.4 |
| 20260903154004 | 93 | 186 | 1.7 | 7.0 | 0.00 | 0.00 | 0.00 | 56 | 1017.4 |
| 20260903153502 | 92 | 274 | 1.7 | 4.3 | 0.00 | 0.00 | 0.00 | 58 | 1017.4 |
| 20260903153100 | 92 | 269 | 0.9 | 7.0 | 0.00 | 0.00 | 0.00 | 59 | 1017.5 |
| 20260903152558 | 91 | 175 | 1.7 | 9.6 | 0.00 | 0.00 | 0.00 | 61 | 1017.5 |
| 20260903152057 | 91 | 211 | 3.5 | 9.6 | 0.00 | 0.00 | 0.00 | 59 | 1017.5 |
| 20260903151556 | 91 | 184 | 1.7 | 4.3 | 0.00 | 0.00 | 0.00 | 60 | 1017.6 |
| 20260903151055 | 90 | 302 | 1.7 | 4.3 | 0.00 | 0.00 | 0.00 | 61 | 1017.5 |
| 20260903150504 | 89 | 239 | 1.7 | 5.2 | 0.00 | 0.00 | 0.00 | 62 | 1017.5 |
| 20260903150005 | 90 | 213 | 0.9 | 7.8 | 0.00 | 0.00 | 0.00 | 62 | 1017.4 |
| 20260903145501 | 89 | 303 | 1.7 | 7.8 | 0.00 | 0.00 | 0.00 | 65 | 1017.6 |
| 20260903145059 | 89 | 98 | 0.9 | 7.0 | 0.00 | 0.00 | 0.00 | 64 | 1017.6 |
| 20260903144602 | 88 | 220 | 1.7 | 7.0 | 0.00 | 0.00 | 0.00 | 66 | 1017.6 |
| 20260903144059 | 88 | 217 | 1.7 | 7.0 | 0.00 | 0.00 | 0.00 | 66 | 1017.7 |
| 20260903143555 | 88 | 165 | 1.7 | 3.5 | 0.00 | 0.00 | 0.00 | 66 | 1017.7 |
| 20260903143059 | 87 | 196 | 0.9 | 7.8 | 0.00 | 0.00 | 0.00 | 69 | 1017.8 |
| 20260903142553 | 86 | 264 | 2.6 | 7.8 | 0.00 | 0.00 | 0.00 | 69 | 1017.8 |
| 20260903142056 | 86 | 327 | 0.9 | 3.5 | 0.00 | 0.00 | 0.00 | 70 | 1017.7 |
| 20260903141556 | 86 | 182 | 1.7 | 5.2 | 0.00 | 0.00 | 0.00 | 70 | 1017.8 |
| 20260903141049 | 85 | 275 | 1.7 | 5.2 | 0.00 | 0.00 | 0.00 | 72 | 1017.8 |
| 20260903140648 | 85 | 79 | 0.9 | 6.1 | 0.00 | 0.00 | 0.00 | 73 | 1017.7 |
| 20260903140052 | 84 | 255 | 0.9 | 7.0 | 0.00 | 0.00 | 0.00 | 75 | 1017.8 |
| 20260903135549 | 82 | 231 | 1.7 | 7.0 | 0.00 | 0.00 | 0.00 | 78 | 1017.8 |
| 20260903135048 | 80 | 270 | 0.9 | 4.3 | 0.00 | 0.00 | 0.00 | 83 | 1017.9 |
| 20260903134546 | 79 | 188 | 0.9 | 3.5 | 0.00 | 0.00 | 0.00 | 85 | 1017.8 |
| 20260903134049 | 77 | 196 | 0.9 | 4.3 | 0.00 | 0.00 | 0.00 | 87 | 1017.8 |
| 20260903133544 | 76 | 185 | 0.9 | 4.3 | 0.00 | 0.00 | 0.00 | 89 | 1017.9 |
| 20260903133043 | 75 | 171 | 0.9 | 2.6 | 0.00 | 0.00 | 0.00 | 90 | 1017.9 |
| 20260903132542 | 75 | 175 | 0.0 | 2.6 | 0.00 | 0.00 | 0.00 | 92 | 1018.0 |
| 20260903132042 | 74 | 203 | 0.0 | 1.7 | 0.00 | 0.00 | 0.00 | 92 | 1017.9 |
| 20260903131543 | 74 | 203 | 0.0 | 1.7 | 0.00 | 0.00 | 0.00 | 93 | 1017.9 |
| 20260903131042 | 73 | 155 | 0.0 | 0.9 | 0.00 | 0.00 | 0.00 | 93 | 1017.8 |
| 20260903130642 | 73 | 155 | 0.0 | 0.9 | 0.00 | 0.00 | 0.00 | 93 | 1017.8 |
| 20260903130048 | 73 | 155 | 0.0 | 0.0 | 0.00 | 0.00 | 0.00 | 94 | 1017.7 |
| 20260903125546 | 72 | 155 | 0.0 | 0.0 | 0.00 | 0.00 | 0.00 | 94 | 1017.8 |
| 20260903125045 | 72 | 155 | 0.0 | 0.9 | 0.00 | 0.00 | 0.00 | 94 | 1017.8 |
| 20260903124553 | 71 | 155 | 0.0 | 0.9 | 0.00 | 0.00 | 0.00 | 94 | 1017.7 |
| 20260903124044 | 71 | 155 | 0.0 | 0.0 | 0.00 | 0.00 | 0.00 | 94 | 1017.7 |
| 20260903123544 | 71 | 155 | 0.0 | 0.0 | 0.00 | 0.00 | 0.00 | 94 | 1017.7 |
| 20260903123044 | 71 | 155 | 0.0 | 0.0 | 0.00 | 0.00 | 0.00 | 95 | 1017.6 |
| 20260903122545 | 70 | 155 | 0.0 | 0.9 | 0.00 | 0.00 | 0.00 | 95 | 1017.7 |
| 20260903122042 | 70 | 155 | 0.0 | 0.9 | 0.00 | 0.00 | 0.00 | 95 | 1017.7 |
| 20260903121544 | 70 | 155 | 0.0 | 0.0 | 0.00 | 0.00 | 0.00 | 95 | 1017.7 |
| 20260903121040 | 70 | 155 | 0.0 | 0.0 | 0.00 | 0.00 | 0.00 | 95 | 1017.7 |
| 20260903120503 | 70 | 155 | 0.0 | 0.0 | 0.00 | 0.00 | 0.00 | 95 | 1017.6 |
| 20260903120003 | 69 | 155 | 0.0 | 0.9 | 0.00 | 0.00 | 0.00 | 95 | 1017.5 |
| 20260903115500 | 69 | 154 | 0.0 | 0.9 | 0.00 | 0.00 | 0.00 | 95 | 1017.6 |
| 20260903115100 | 69 | 161 | 0.0 | 0.9 | 0.00 | 0.00 | 0.00 | 95 | 1017.6 |
| 20260903114618 | 69 | 161 | 0.0 | 0.9 | 0.00 | 0.00 | 0.00 | 95 | 1017.6 |
| 20260903114058 | 69 | 161 | 0.0 | 0.0 | 0.00 | 0.00 | 0.00 | 95 | 1017.6 |
| 20260903113558 | 69 | 161 | 0.0 | 0.9 | 0.00 | 0.00 | 0.00 | 95 | 1017.5 |
| 20260903113104 | 70 | 161 | 0.0 | 0.9 | 0.00 | 0.00 | 0.00 | 94 | 1017.4 |
| 20260903112558 | 70 | 161 | 0.0 | 0.9 | 0.00 | 0.00 | 0.00 | 94 | 1017.4 |
| 20260903112056 | 70 | 161 | 0.0 | 0.9 | 0.00 | 0.00 | 0.00 | 94 | 1017.3 |
| 20260903111616 | 70 | 161 | 0.0 | 0.0 | 0.00 | 0.00 | 0.00 | 94 | 1017.4 |
| 20260903111058 | 70 | 161 | 0.0 | 0.9 | 0.00 | 0.00 | 0.00 | 94 | 1017.4 |
| 20260903110657 | 70 | 161 | 0.0 | 0.9 | 0.00 | 0.00 | 0.00 | 94 | 1017.4 |
| 20260903110055 | 70 | 161 | 0.0 | 0.9 | 0.00 | 0.00 | 0.00 | 94 | 1017.3 |
| 20260903105557 | 70 | 161 | 0.0 | 0.0 | 0.00 | 0.00 | 0.00 | 94 | 1017.3 |
| 20260903105055 | 70 | 161 | 0.0 | 0.9 | 0.00 | 0.00 | 0.00 | 94 | 1017.3 |
| 20260903104559 | 70 | 161 | 0.0 | 0.9 | 0.00 | 0.00 | 0.00 | 94 | 1017.2 |
| 20260903104051 | 70 | 161 | 0.0 | 0.9 | 0.00 | 0.00 | 0.00 | 94 | 1017.1 |
| 20260903103551 | 70 | 161 | 0.0 | 0.9 | 0.00 | 0.00 | 0.00 | 94 | 1017.1 |
| 20260903103058 | 70 | 161 | 0.0 | 0.9 | 0.00 | 0.00 | 0.00 | 94 | 1017.0 |
| 20260903102550 | 70 | 161 | 0.0 | 0.9 | 0.00 | 0.00 | 0.00 | 94 | 1017.1 |
| 20260903102050 | 70 | 161 | 0.0 | 0.9 | 0.00 | 0.00 | 0.00 | 94 | 1017.1 |
| 20260903101553 | 70 | 161 | 0.0 | 0.9 | 0.00 | 0.00 | 0.00 | 94 | 1017.1 |
| 20260903101050 | 70 | 161 | 0.0 | 0.9 | 0.00 | 0.00 | 0.00 | 94 | 1017.1 |
| 20260903100652 | 70 | 161 | 0.0 | 0.0 | 0.00 | 0.00 | 0.00 | 94 | 1017.0 |
| 20260903100048 | 70 | 161 | 0.0 | 0.0 | 0.00 | 0.00 | 0.00 | 94 | 1017.0 |
| 20260903095547 | 70 | 161 | 0.0 | 0.0 | 0.00 | 0.00 | 0.00 | 94 | 1017.0 |
| 20260903095047 | 70 | 161 | 0.0 | 0.0 | 0.00 | 0.00 | 0.00 | 94 | 1017.0 |
| 20260903094556 | 70 | 161 | 0.0 | 0.0 | 0.00 | 0.00 | 0.00 | 94 | 1017.0 |
| 20260903094046 | 70 | 161 | 0.0 | 0.0 | 0.00 | 0.00 | 0.00 | 94 | 1016.9 |
| 20260903093546 | 70 | 161 | 0.0 | 0.0 | 0.00 | 0.00 | 0.00 | 94 | 1017.0 |
| 20260903093120 | 70 | 161 | 0.0 | 0.0 | 0.00 | 0.00 | 0.00 | 94 | 1017.0 |
| 20260903092546 | 70 | 161 | 0.0 | 0.0 | 0.00 | 0.00 | 0.00 | 93 | 1016.9 |
| 20260903092046 | 70 | 161 | 0.0 | 0.0 | 0.00 | 0.00 | 0.00 | 93 | 1017.0 |
| 20260903091552 | 70 | 161 | 0.0 | 0.0 | 0.00 | 0.00 | 0.00 | 93 | 1017.0 |
| 20260903091046 | 70 | 161 | 0.0 | 0.0 | 0.00 | 0.00 | 0.00 | 93 | 1017.0 |
| 20260903090646 | 70 | 161 | 0.0 | 0.0 | 0.00 | 0.00 | 0.00 | 93 | 1017.0 |
| 20260903090050 | 70 | 161 | 0.0 | 0.0 | 0.00 | 0.00 | 0.00 | 93 | 1017.0 |
| 20260903085548 | 70 | 161 | 0.0 | 0.0 | 0.00 | 0.00 | 0.00 | 93 | 1016.9 |
| 20260903085048 | 71 | 161 | 0.0 | 0.0 | 0.00 | 0.00 | 0.00 | 92 | 1017.1 |
| 20260903084548 | 71 | 161 | 0.0 | 0.0 | 0.00 | 0.00 | 0.00 | 92 | 1017.0 |
| 20260903084048 | 71 | 161 | 0.0 | 0.0 | 0.00 | 0.00 | 0.00 | 92 | 1017.0 |
| 20260903083548 | 71 | 161 | 0.0 | 0.0 | 0.00 | 0.00 | 0.00 | 92 | 1016.9 |
| 20260903083051 | 71 | 161 | 0.0 | 0.0 | 0.00 | 0.00 | 0.00 | 92 | 1017.0 |
| 20260903082547 | 71 | 161 | 0.0 | 0.0 | 0.00 | 0.00 | 0.00 | 92 | 1017.0 |
| 20260903082046 | 71 | 161 | 0.0 | 0.0 | 0.00 | 0.00 | 0.00 | 91 | 1016.9 |
| 20260903081545 | 71 | 161 | 0.0 | 0.0 | 0.00 | 0.00 | 0.00 | 91 | 1016.9 |
| 20260903081044 | 71 | 161 | 0.0 | 0.0 | 0.00 | 0.00 | 0.00 | 91 | 1016.8 |
| 20260903080644 | 72 | 161 | 0.0 | 0.0 | 0.00 | 0.00 | 0.00 | 91 | 1016.8 |
| 20260903080045 | 72 | 161 | 0.0 | 0.0 | 0.00 | 0.00 | 0.00 | 91 | 1016.8 |
| 20260903075548 | 72 | 161 | 0.0 | 0.0 | 0.00 | 0.00 | 0.00 | 91 | 1016.8 |
| 20260903075048 | 72 | 161 | 0.0 | 0.9 | 0.00 | 0.00 | 0.00 | 91 | 1016.8 |
| 20260903074546 | 72 | 161 | 0.0 | 0.9 | 0.00 | 0.00 | 0.00 | 91 | 1016.9 |
| 20260903074043 | 72 | 161 | 0.0 | 0.0 | 0.00 | 0.00 | 0.00 | 91 | 1016.9 |
| 20260903073543 | 72 | 161 | 0.0 | 0.0 | 0.00 | 0.00 | 0.00 | 90 | 1016.9 |
| 20260903073043 | 72 | 161 | 0.0 | 0.0 | 0.00 | 0.00 | 0.00 | 91 | 1016.9 |
| 20260903072541 | 72 | 161 | 0.0 | 0.0 | 0.00 | 0.00 | 0.00 | 90 | 1016.9 |
| 20260903072041 | 72 | 161 | 0.0 | 0.0 | 0.00 | 0.00 | 0.00 | 90 | 1017.0 |
| 20260903071554 | 72 | 161 | 0.0 | 0.0 | 0.00 | 0.00 | 0.00 | 90 | 1017.0 |
| 20260903071041 | 72 | 161 | 0.0 | 0.0 | 0.00 | 0.00 | 0.00 | 90 | 1017.0 |
| 20260903070642 | 72 | 161 | 0.0 | 0.0 | 0.00 | 0.00 | 0.00 | 90 | 1017.0 |
| 20260903070058 | 73 | 161 | 0.0 | 0.9 | 0.00 | 0.00 | 0.00 | 90 | 1017.0 |
| 20260903065547 | 73 | 161 | 0.0 | 0.0 | 0.00 | 0.00 | 0.00 | 89 | 1017.0 |
| 20260903065042 | 73 | 161 | 0.0 | 0.0 | 0.00 | 0.00 | 0.00 | 89 | 1017.0 |
| 20260903064542 | 73 | 161 | 0.0 | 0.9 | 0.00 | 0.00 | 0.00 | 88 | 1017.0 |
| 20260903064042 | 73 | 161 | 0.0 | 0.9 | 0.00 | 0.00 | 0.00 | 88 | 1017.1 |
| 20260903063542 | 73 | 157 | 0.0 | 1.7 | 0.00 | 0.00 | 0.00 | 88 | 1017.0 |
| 20260903063042 | 73 | 157 | 0.0 | 2.6 | 0.00 | 0.00 | 0.00 | 88 | 1017.0 |
| 20260903062541 | 73 | 148 | 0.0 | 2.6 | 0.00 | 0.00 | 0.00 | 88 | 1017.0 |
| 20260903062041 | 73 | 164 | 0.0 | 1.7 | 0.00 | 0.00 | 0.00 | 89 | 1017.1 |
| 20260903061542 | 73 | 158 | 0.0 | 2.6 | 0.00 | 0.00 | 0.00 | 89 | 1017.0 |
| 20260903061039 | 74 | 158 | 0.0 | 2.6 | 0.00 | 0.00 | 0.00 | 89 | 1017.1 |
| 20260903060501 | 74 | 144 | 0.0 | 0.9 | 0.00 | 0.00 | 0.00 | 88 | 1017.1 |
| 20260903055600 | 74 | 142 | 0.0 | 1.7 | 0.00 | 0.00 | 0.00 | 88 | 1017.1 |
| 20260903055058 | 74 | 170 | 0.0 | 4.3 | 0.00 | 0.00 | 0.00 | 88 | 1017.0 |
| 20260903054558 | 74 | 138 | 0.0 | 4.3 | 0.00 | 0.00 | 0.00 | 88 | 1016.9 |
| 20260903054058 | 74 | 178 | 0.0 | 1.7 | 0.00 | 0.00 | 0.00 | 87 | 1016.9 |
| 20260903053558 | 74 | 190 | 0.0 | 3.5 | 0.00 | 0.00 | 0.00 | 87 | 1016.9 |
| 20260903053056 | 75 | 190 | 0.0 | 3.5 | 0.00 | 0.00 | 0.00 | 86 | 1016.9 |
| 20260903052556 | 75 | 178 | 0.0 | 2.6 | 0.00 | 0.00 | 0.00 | 86 | 1016.9 |
| 20260903052055 | 75 | 140 | 0.0 | 2.6 | 0.00 | 0.00 | 0.00 | 85 | 1016.9 |
| 20260903051555 | 75 | 147 | 0.0 | 2.6 | 0.00 | 0.00 | 0.00 | 86 | 1016.9 |
| 20260903051053 | 75 | 146 | 0.9 | 3.5 | 0.00 | 0.00 | 0.00 | 86 | 1016.9 |
| 20260903050654 | 75 | 129 | 0.9 | 3.5 | 0.00 | 0.00 | 0.00 | 85 | 1016.8 |
| 20260903050107 | 75 | 144 | 0.0 | 2.6 | 0.00 | 0.00 | 0.00 | 84 | 1016.8 |
| 20260903045551 | 76 | 145 | 0.0 | 2.6 | 0.00 | 0.00 | 0.00 | 84 | 1016.7 |
| 20260903045050 | 76 | 186 | 0.0 | 2.6 | 0.00 | 0.00 | 0.00 | 83 | 1016.8 |
| 20260903044559 | 76 | 147 | 0.0 | 2.6 | 0.00 | 0.00 | 0.00 | 83 | 1016.7 |
| 20260903044050 | 76 | 146 | 0.0 | 1.7 | 0.00 | 0.00 | 0.00 | 83 | 1016.8 |
| 20260903043550 | 77 | 146 | 0.0 | 1.7 | 0.00 | 0.00 | 0.00 | 82 | 1016.8 |
| 20260903043049 | 77 | 198 | 0.0 | 2.6 | 0.00 | 0.00 | 0.00 | 82 | 1016.8 |
| 20260903042550 | 77 | 209 | 0.0 | 2.6 | 0.00 | 0.00 | 0.00 | 82 | 1016.7 |
| 20260903042054 | 77 | 188 | 0.0 | 1.7 | 0.00 | 0.00 | 0.00 | 83 | 1016.7 |
| 20260903041605 | 77 | 198 | 0.0 | 1.7 | 0.00 | 0.00 | 0.00 | 82 | 1016.8 |
| 20260903041049 | 77 | 196 | 0.0 | 2.6 | 0.00 | 0.00 | 0.00 | 81 | 1016.8 |
| 20260903040650 | 78 | 161 | 0.0 | 2.6 | 0.00 | 0.00 | 0.00 | 81 | 1016.7 |
| 20260903040052 | 78 | 193 | 0.0 | 2.6 | 0.00 | 0.00 | 0.00 | 81 | 1016.7 |
| 20260903035547 | 78 | 168 | 0.9 | 4.3 | 0.00 | 0.00 | 0.00 | 79 | 1016.7 |
| 20260903035046 | 78 | 171 | 0.9 | 4.3 | 0.00 | 0.00 | 0.00 | 79 | 1016.6 |
| 20260903034546 | 79 | 182 | 0.0 | 4.3 | 0.00 | 0.00 | 0.00 | 78 | 1016.6 |
| 20260903034046 | 79 | 179 | 0.9 | 3.5 | 0.00 | 0.00 | 0.00 | 78 | 1016.4 |
| 20260903033545 | 79 | 162 | 0.9 | 3.5 | 0.00 | 0.00 | 0.00 | 78 | 1016.4 |
| 20260903033046 | 79 | 174 | 0.0 | 2.6 | 0.00 | 0.00 | 0.00 | 78 | 1016.4 |
| 20260903032546 | 79 | 155 | 0.0 | 4.3 | 0.00 | 0.00 | 0.00 | 78 | 1016.4 |
| 20260903032045 | 80 | 172 | 0.0 | 4.3 | 0.00 | 0.00 | 0.00 | 77 | 1016.6 |
| 20260903031544 | 80 | 162 | 0.9 | 4.3 | 0.00 | 0.00 | 0.00 | 76 | 1016.5 |
| 20260903031047 | 80 | 188 | 0.9 | 3.5 | 0.00 | 0.00 | 0.00 | 77 | 1016.5 |
| 20260903030645 | 80 | 148 | 0.0 | 3.5 | 0.00 | 0.00 | 0.00 | 76 | 1016.5 |
| 20260903030041 | 80 | 176 | 0.9 | 5.2 | 0.00 | 0.00 | 0.00 | 77 | 1016.5 |
| 20260903025540 | 80 | 170 | 1.7 | 5.2 | 0.00 | 0.00 | 0.00 | 77 | 1016.5 |
| 20260903025040 | 80 | 186 | 0.9 | 5.2 | 0.00 | 0.00 | 0.00 | 77 | 1016.4 |
| 20260903024541 | 80 | 165 | 1.7 | 5.2 | 0.00 | 0.00 | 0.00 | 77 | 1016.5 |
| 20260903024039 | 80 | 156 | 1.7 | 4.3 | 0.00 | 0.00 | 0.00 | 76 | 1016.6 |
| 20260903023540 | 80 | 177 | 0.9 | 4.3 | 0.00 | 0.00 | 0.00 | 76 | 1016.5 |
| 20260903023043 | 80 | 150 | 0.9 | 7.8 | 0.00 | 0.00 | 0.00 | 75 | 1016.5 |
| 20260903022542 | 81 | 165 | 0.9 | 5.2 | 0.00 | 0.00 | 0.00 | 75 | 1016.5 |
| 20260903022039 | 81 | 171 | 0.9 | 4.3 | 0.00 | 0.00 | 0.00 | 75 | 1016.4 |
| 20260903021539 | 81 | 155 | 0.9 | 5.2 | 0.00 | 0.00 | 0.00 | 74 | 1016.4 |
| 20260903021041 | 80 | 195 | 0.9 | 6.1 | 0.00 | 0.00 | 0.00 | 75 | 1016.3 |
| 20260903020639 | 80 | 171 | 0.9 | 6.1 | 0.00 | 0.00 | 0.00 | 76 | 1016.2 |
| 20260903015558 | 80 | 206 | 0.9 | 5.2 | 0.00 | 0.00 | 0.00 | 76 | 1016.1 |
| 20260903015058 | 80 | 189 | 0.9 | 4.3 | 0.00 | 0.00 | 0.00 | 76 | 1016.0 |
| 20260903014623 | 80 | 144 | 0.9 | 3.5 | 0.00 | 0.00 | 0.00 | 76 | 1015.9 |
| 20260903014101 | 81 | 168 | 0.0 | 4.3 | 0.00 | 0.00 | 0.00 | 75 | 1015.9 |
| 20260903013557 | 81 | 176 | 0.9 | 4.3 | 0.00 | 0.00 | 0.00 | 75 | 1015.7 |
| 20260903013107 | 81 | 192 | 0.9 | 2.6 | 0.00 | 0.00 | 0.00 | 74 | 1015.7 |
| 20260903012557 | 81 | 192 | 0.9 | 2.6 | 0.00 | 0.00 | 0.00 | 74 | 1015.6 |
| 20260903012057 | 81 | 184 | 0.0 | 0.9 | 0.00 | 0.00 | 0.00 | 74 | 1015.6 |
| 20260903011557 | 81 | 184 | 0.0 | 1.7 | 0.00 | 0.00 | 0.00 | 73 | 1015.4 |
| 20260903011057 | 81 | 155 | 0.0 | 1.7 | 0.00 | 0.00 | 0.00 | 72 | 1015.4 |
| 20260903010656 | 82 | 165 | 0.0 | 1.7 | 0.00 | 0.00 | 0.00 | 71 | 1015.4 |
| 20260903010057 | 82 | 154 | 0.0 | 6.1 | 0.00 | 0.00 | 0.00 | 71 | 1015.4 |
| 20260903005557 | 82 | 157 | 0.9 | 6.1 | 0.00 | 0.00 | 0.00 | 70 | 1015.4 |
| 20260903005056 | 82 | 119 | 0.9 | 3.5 | 0.00 | 0.00 | 0.00 | 69 | 1015.4 |
| 20260903004600 | 82 | 121 | 0.0 | 2.6 | 0.00 | 0.00 | 0.00 | 68 | 1015.5 |
| 20260903004055 | 83 | 108 | 0.0 | 1.7 | 0.00 | 0.00 | 0.00 | 69 | 1015.4 |
| 20260903003556 | 84 | 157 | 0.0 | 1.7 | 0.00 | 0.00 | 0.00 | 65 | 1015.4 |
| 20260903003109 | 85 | 148 | 0.9 | 2.6 | 0.00 | 0.00 | 0.00 | 63 | 1015.5 |
| 20260903002555 | 86 | 170 | 0.9 | 2.6 | 0.00 | 0.00 | 0.00 | 62 | 1015.4 |
| 20260903002055 | 86 | 187 | 0.9 | 2.6 | 0.00 | 0.00 | 0.00 | 59 | 1015.3 |
| 20260903001555 | 87 | 182 | 0.9 | 7.0 | 0.00 | 0.00 | 0.00 | 59 | 1015.3 |
| 20260903001054 | 88 | 159 | 1.7 | 7.0 | 0.00 | 0.00 | 0.00 | 58 | 1015.2 |
| 20260903000653 | 89 | 161 | 0.9 | 4.3 | 0.00 | 0.00 | 0.00 | 53 | 1015.3 |
| 20260903000104 | 90 | 157 | 2.6 | 7.0 | 0.00 | 0.00 | 0.00 | 54 | 1015.3 |
| 20260902235555 | 91 | 126 | 2.6 | 8.7 | 0.00 | 0.00 | 0.00 | 50 | 1015.3 |
| 20260902235052 | 91 | 131 | 3.5 | 8.7 | 0.00 | 0.00 | 0.00 | 52 | 1015.3 |
| 20260902234552 | 91 | 193 | 2.6 | 7.0 | 0.00 | 0.00 | 0.00 | 50 | 1015.3 |
| 20260902234053 | 92 | 123 | 1.7 | 5.2 | 0.00 | 0.00 | 0.00 | 48 | 1015.3 |
| 20260902233550 | 92 | 137 | 1.7 | 7.0 | 0.00 | 0.00 | 0.00 | 48 | 1015.2 |
| 20260902233050 | 93 | 145 | 1.7 | 8.7 | 0.00 | 0.00 | 0.00 | 44 | 1015.3 |
| 20260902232551 | 93 | 149 | 3.5 | 8.7 | 0.00 | 0.00 | 0.00 | 44 | 1015.3 |
| 20260902232049 | 93 | 144 | 2.6 | 7.0 | 0.00 | 0.00 | 0.00 | 44 | 1015.3 |
| 20260902231549 | 93 | 128 | 1.7 | 7.0 | 0.00 | 0.00 | 0.00 | 48 | 1015.3 |
| 20260902231049 | 93 | 327 | 2.6 | 7.8 | 0.00 | 0.00 | 0.00 | 47 | 1015.3 |
| 20260902230649 | 94 | 225 | 2.6 | 7.8 | 0.00 | 0.00 | 0.00 | 45 | 1015.3 |
| 20260902230057 | 94 | 170 | 2.6 | 6.1 | 0.00 | 0.00 | 0.00 | 46 | 1015.3 |
| 20260902225552 | 94 | 129 | 1.7 | 7.8 | 0.00 | 0.00 | 0.00 | 48 | 1015.3 |
| 20260902225047 | 94 | 182 | 2.6 | 8.7 | 0.00 | 0.00 | 0.00 | 45 | 1015.3 |
| 20260902224605 | 94 | 223 | 2.6 | 8.7 | 0.00 | 0.00 | 0.00 | 46 | 1015.2 |
| 20260902224046 | 94 | 143 | 1.7 | 7.0 | 0.00 | 0.00 | 0.00 | 45 | 1015.2 |
| 20260902223549 | 94 | 181 | 2.6 | 7.0 | 0.00 | 0.00 | 0.00 | 47 | 1015.3 |
| 20260902223055 | 93 | 173 | 1.7 | 10.4 | 0.00 | 0.00 | 0.00 | 49 | 1015.3 |
| 20260902222545 | 93 | 159 | 4.3 | 10.4 | 0.00 | 0.00 | 0.00 | 48 | 1015.3 |
| 20260902222045 | 91 | 122 | 1.7 | 6.1 | 0.00 | 0.00 | 0.00 | 50 | 1015.4 |
| 20260902221545 | 92 | 130 | 1.7 | 6.1 | 0.00 | 0.00 | 0.00 | 50 | 1015.4 |
| 20260902221045 | 93 | 160 | 0.9 | 10.4 | 0.00 | 0.00 | 0.00 | 48 | 1015.4 |
| 20260902220644 | 94 | 131 | 2.6 | 10.4 | 0.00 | 0.00 | 0.00 | 45 | 1015.3 |
| 20260902220044 | 95 | 175 | 4.3 | 10.4 | 0.00 | 0.00 | 0.00 | 43 | 1015.5 |
| 20260902215543 | 95 | 184 | 2.6 | 7.8 | 0.00 | 0.00 | 0.00 | 43 | 1015.5 |
| 20260902215047 | 95 | 162 | 0.9 | 7.8 | 0.00 | 0.00 | 0.00 | 46 | 1015.5 |
| 20260902214610 | 96 | 159 | 2.6 | 7.8 | 0.00 | 0.00 | 0.00 | 44 | 1015.6 |
| 20260902214042 | 95 | 141 | 1.7 | 7.8 | 0.00 | 0.00 | 0.00 | 46 | 1015.6 |
| 20260902213541 | 95 | 155 | 1.7 | 8.7 | 0.00 | 0.00 | 0.00 | 43 | 1015.7 |
| 20260902213042 | 96 | 175 | 3.5 | 7.8 | 0.00 | 0.00 | 0.00 | 43 | 1015.7 |
| 20260902212541 | 97 | 211 | 3.5 | 8.7 | 0.00 | 0.00 | 0.00 | 41 | 1015.7 |
| 20260902212041 | 98 | 207 | 3.5 | 8.7 | 0.00 | 0.00 | 0.00 | 41 | 1015.6 |
| 20260902211541 | 97 | 173 | 2.6 | 6.1 | 0.00 | 0.00 | 0.00 | 41 | 1015.6 |
| 20260902211040 | 97 | 173 | 1.7 | 6.1 | 0.00 | 0.00 | 0.00 | 40 | 1015.7 |
| 20260902210639 | 97 | 209 | 2.6 | 8.7 | 0.00 | 0.00 | 0.00 | 40 | 1015.7 |
| 20260902210100 | 97 | 206 | 1.7 | 8.7 | 0.00 | 0.00 | 0.00 | 40 | 1015.7 |
| 20260902205600 | 97 | 169 | 2.6 | 7.8 | 0.00 | 0.00 | 0.00 | 42 | 1015.7 |
| 20260902205058 | 98 | 127 | 2.6 | 7.8 | 0.00 | 0.00 | 0.00 | 39 | 1015.7 |
| 20260902204607 | 98 | 200 | 1.7 | 7.0 | 0.00 | 0.00 | 0.00 | 41 | 1015.8 |
| 20260902204058 | 98 | 248 | 1.7 | 8.7 | 0.00 | 0.00 | 0.00 | 41 | 1015.9 |
| 20260902203557 | 98 | 165 | 3.5 | 9.6 | 0.00 | 0.00 | 0.00 | 40 | 1015.9 |
| 20260902203057 | 98 | 213 | 4.3 | 9.6 | 0.00 | 0.00 | 0.00 | 41 | 1016.0 |
| 20260902202557 | 98 | 165 | 2.6 | 8.7 | 0.00 | 0.00 | 0.00 | 45 | 1016.0 |
| 20260902202057 | 98 | 173 | 3.5 | 10.4 | 0.00 | 0.00 | 0.00 | 39 | 1016.1 |
| 20260902201621 | 99 | 113 | 4.3 | 10.4 | 0.00 | 0.00 | 0.00 | 39 | 1016.1 |
| 20260902201055 | 98 | 217 | 2.6 | 9.6 | 0.00 | 0.00 | 0.00 | 40 | 1016.1 |